Regional Weather Roundup
Issued by NWS

Home | Current Version | Previous Version | Graphics & Text | Print | Product List | Glossary On
Versions: 1 2 3 4 5 6 7 8 9 10 11 12 13 14 15 16 17 18 19 20 21 22 23 24 25 26 27 28 29 30 31 32 33 34 35 36 37 38 39 40 41 42 43 44 45 46 47 48 49 50
000
ASUS43 KBIS 250202
RWRND

NORTH DAKOTA REGIONAL WEATHER ROUNDUP
NATIONAL WEATHER SERVICE BISMARCK ND
900 PM CDT SUN JUL 24 2016

NOTE: "FAIR" INDICATES FEW OR NO CLOUDS BELOW 12,000 FEET WITH NO
SIGNIFICANT WEATHER AND/OR OBSTRUCTIONS TO VISIBILITY.


NDZ001>003-009>011-017-250300-
NORTHWEST NORTH DAKOTA

CITY           SKY/WX    TMP DP  RH WIND       PRES   REMARKS
WILLISTON      CLEAR     83  56  39 CALM      29.97S
MINOT          CLEAR     76  61  59 NE3       29.98S
MINOT AFB      CLEAR     75  58  55 NE5       29.97S
$$

NDZ018>021-031>035-040>046-250300-
SOUTHWEST NORTH DAKOTA

CITY           SKY/WX    TMP DP  RH WIND       PRES   REMARKS
BISMARCK       CLEAR     75  60  59 E8        30.01S
DICKINSON      CLEAR     77  54  44 E5        30.01S
GARRISON         N/A     74  64  71 CALM      30.00S
HETTINGER ARPT CLEAR     80  47  31 E8        30.06R
$$

NDZ004>008-012>016-024-026-027-054-250300-
NORTHEAST NORTH DAKOTA

CITY           SKY/WX    TMP DP  RH WIND       PRES   REMARKS
GRAND FORKS    PTCLDY    71  62  73 W7        29.92R
GRND FRKS AFB  CLEAR     72  61  66 W7        29.94R
DEVILS LAKE    CLEAR     71  60  68 W7        29.98R
$$

NDZ022-023-025-028>030-036>039-047>053-250300-
SOUTHEAST NORTH DAKOTA

CITY           SKY/WX    TMP DP  RH WIND       PRES   REMARKS
FARGO          CLEAR     75  61  61 W5        29.95R
JAMESTOWN      CLEAR     71  58  63 NW7       30.00R
$$





USA.gov is the U.S. government's official web portal to all federal, state and local government web resources and services.